KK7RJD Weather Reports


time (UTC)temp
F
wind
direction
speed
knots
gust
knots
rain 1hr
in
rain 24hr
in
rain mn
in
humidity
%
barometer
mb
20260502170208 62 23 3.5 3.5 0.00 0.00 0.00 29 1018.9
20260502164155 61 38 1.7 1.7 0.00 0.00 0.00 29 1019.1
20260502163650 60 19 3.5 3.5 0.00 0.00 0.00 29 1019.0
20260502163147 60 95 2.6 3.5 0.00 0.00 0.00 31 1019.0
20260502162644 59 60 1.7 2.6 0.00 0.00 0.00 29 1019.0
20260502162141 58 72 2.6 3.5 0.00 0.00 0.00 31 1019.0
20260502161638 58 40 4.3 6.1 0.00 0.00 0.00 32 1019.0
20260502161135 59 85 3.5 3.5 0.00 0.00 0.00 33 1019.0
20260502160633 58 68 1.7 1.7 0.00 0.00 0.00 33 1019.0
20260502160131 58 89 3.5 3.5 0.00 0.00 0.00 33 1019.1
20260502152045 56 151 0.0 0.9 0.00 0.00 0.00 35 1019.3
20260502151542 56 38 0.9 1.7 0.00 0.00 0.00 34 1019.3
20260502151040 55 142 0.0 0.0 0.00 0.00 0.00 34 1019.2
20260502150537 54 105 2.6 2.6 0.00 0.00 0.00 36 1019.1
20260502130422 38 271 1.7 1.7 0.00 0.00 0.00 62 1019.1
20260502123405 33 203 0.0 0.0 0.00 0.00 0.00 66 1018.9
20260502122902 33 204 0.0 0.0 0.00 0.00 0.00 68 1019.0
20260502122358 33 211 0.0 0.0 0.00 0.00 0.00 68 1019.0
20260502121856 32 225 0.0 0.9 0.00 0.00 0.00 67 1018.9
20260502121353 32 245 0.0 0.9 0.00 0.00 0.00 69 1018.9
20260502120851 32 203 0.0 0.0 0.00 0.00 0.00 68 1018.6
20260502120346 33 195 0.9 0.9 0.00 0.00 0.00 67 1018.7
20260502115844 34 286 0.0 0.9 0.00 0.00 0.00 66 1018.7
20260502115341 34 299 0.9 0.9 0.00 0.00 0.00 66 1018.7
20260502114837 34 249 0.0 0.0 0.00 0.00 0.00 65 1018.7
20260502114334 34 323 0.0 0.0 0.00 0.00 0.00 66 1018.7
20260502113831 34 255 0.9 0.9 0.00 0.00 0.00 67 1018.6
20260502113329 32 262 0.0 0.0 0.00 0.00 0.00 69 1018.9
20260502112827 33 160 0.0 0.0 0.00 0.00 0.00 67 1019.0
20260502112324 34 150 0.0 0.0 0.00 0.00 0.00 67 1019.0
20260502111822 35 228 0.0 0.0 0.00 0.00 0.00 66 1019.0
20260502111319 35 289 0.0 0.9 0.00 0.00 0.00 65 1018.6
20260502110816 35 221 0.0 0.0 0.00 0.00 0.00 64 1018.7
20260502110314 35 218 0.0 0.0 0.00 0.00 0.00 65 1018.9
20260502105812 35 236 1.7 1.7 0.00 0.00 0.00 65 1018.7
20260502105308 35 320 0.9 0.9 0.00 0.00 0.00 63 1018.5
20260502104806 35 247 0.0 0.0 0.00 0.00 0.00 65 1018.6
20260502104303 36 218 1.7 1.7 0.00 0.00 0.00 64 1018.5
20260502103800 36 248 0.9 1.7 0.00 0.00 0.00 64 1018.9
20260502103257 36 208 0.0 0.0 0.00 0.00 0.00 63 1018.7
20260502102755 38 239 0.0 0.9 0.00 0.00 0.00 59 1018.7
20260502102251 39 202 0.0 0.0 0.00 0.00 0.00 57 1018.5
20260502101749 39 262 0.9 0.9 0.00 0.00 0.00 56 1018.7
20260502101247 38 275 0.9 0.9 0.00 0.00 0.00 57 1018.6
20260502100745 38 345 0.9 1.7 0.00 0.00 0.00 60 1018.5
20260502100243 39 347 1.7 1.7 0.00 0.00 0.00 57 1018.6
20260502091217 42 298 1.7 1.7 0.00 0.00 0.00 48 1018.4
20260502090715 42 334 1.7 2.6 0.00 0.00 0.00 49 1018.5
20260502090211 41 280 0.9 1.7 0.00 0.00 0.00 50 1018.5
20260502071113 42 336 1.7 1.7 0.00 0.00 0.00 55 1018.9
20260502070611 42 331 1.7 1.7 0.00 0.00 0.00 56 1018.7
20260502070109 43 357 1.7 1.7 0.00 0.00 0.00 55 1018.7
20260502065607 43 8 1.7 1.7 0.00 0.00 0.00 50 1018.7
20260502065104 44 12 1.7 2.6 0.00 0.00 0.00 47 1018.7
20260502064602 44 59 0.0 0.9 0.00 0.00 0.00 49 1018.6
20260502064059 45 46 0.0 0.9 0.00 0.00 0.00 46 1018.9
20260502063557 45 329 0.9 1.7 0.00 0.00 0.00 46 1018.7
20260502063055 44 311 1.7 1.7 0.00 0.00 0.00 48 1018.9
20260502062551 44 282 0.9 0.9 0.00 0.00 0.00 47 1018.7
20260502062049 42 286 0.9 0.9 0.00 0.00 0.00 49 1018.7
20260502061547 42 190 0.0 0.0 0.00 0.00 0.00 50 1018.7
20260502061044 43 175 0.0 0.0 0.00 0.00 0.00 48 1018.5
20260502060539 44 175 0.0 0.0 0.00 0.00 0.00 46 1018.7
20260502060036 44 192 0.0 0.0 0.00 0.00 0.00 45 1018.6
20260502055534 43 163 0.0 0.0 0.00 0.00 0.00 46 1018.6
20260502055032 44 150 0.0 0.0 0.00 0.00 0.00 48 1018.7
20260502054531 44 159 0.0 0.0 0.00 0.00 0.00 46 1018.6
20260502054027 44 203 0.0 0.0 0.00 0.00 0.00 45 1018.7
20260502053524 43 190 0.0 0.0 0.00 0.00 0.00 46 1018.7
20260502053022 43 213 0.0 0.0 0.00 0.00 0.00 47 1018.7
20260502052520 44 172 0.0 0.0 0.00 0.00 0.00 46 1018.9
20260502052018 45 194 0.0 0.0 0.00 0.00 0.00 44 1018.7
20260502051516 46 189 0.0 0.0 0.00 0.00 0.00 43 1018.7
20260502051013 47 201 0.0 0.0 0.00 0.00 0.00 42 1018.9
20260502050509 47 230 0.0 0.9 0.00 0.00 0.00 41 1018.7
20260502050007 47 196 0.0 0.0 0.00 0.00 0.00 41 1018.7
20260502045503 48 237 0.0 0.9 0.00 0.00 0.00 40 1018.6
20260502045000 48 202 0.0 0.0 0.00 0.00 0.00 40 1018.7
20260502044456 48 325 0.9 0.9 0.00 0.00 0.00 40 1018.7
20260502043953 47 230 0.0 0.9 0.00 0.00 0.00 41 1018.9
20260502043451 47 205 0.0 0.0 0.00 0.00 0.00 42 1018.7
20260502042950 47 205 0.0 0.9 0.00 0.00 0.00 40 1018.9
20260502042447 48 215 0.9 0.9 0.00 0.00 0.00 40 1018.9
20260502041945 50 216 0.0 0.0 0.00 0.00 0.00 35 1018.6
20260502041442 49 305 1.7 1.7 0.00 0.00 0.00 35 1018.6
20260502040939 49 256 0.9 0.9 0.00 0.00 0.00 34 1018.9
20260502040436 50 188 0.0 0.0 0.00 0.00 0.00 36 1018.7
20260502035932 50 194 0.0 0.0 0.00 0.00 0.00 36 1018.5
20260502035428 50 184 0.0 0.0 0.00 0.00 0.00 36 1018.6
20260502034926 50 208 0.9 0.9 0.00 0.00 0.00 36 1018.6
20260502034425 51 203 0.0 0.0 0.00 0.00 0.00 33 1018.5
20260502033923 51 202 0.0 0.0 0.00 0.00 0.00 33 1018.6
20260502033420 52 202 0.0 0.0 0.00 0.00 0.00 32 1018.5
20260502032916 53 202 0.0 0.0 0.00 0.00 0.00 32 1018.5
20260502032413 52 202 0.0 0.0 0.00 0.00 0.00 30 1018.4
20260502031910 52 198 0.0 0.0 0.00 0.00 0.00 30 1018.4
20260502031409 53 198 0.0 0.0 0.00 0.00 0.00 31 1018.4
20260502030907 55 200 0.0 0.0 0.00 0.00 0.00 30 1018.4
20260502030404 57 180 0.0 0.0 0.00 0.00 0.00 29 1018.2
20260502025902 57 104 0.0 0.0 0.00 0.00 0.00 25 1018.3
20260502025359 57 73 0.0 0.0 0.00 0.00 0.00 25 1018.2
20260502024857 57 61 0.0 0.0 0.00 0.00 0.00 27 1018.3
20260502024354 57 63 0.0 0.0 0.00 0.00 0.00 25 1018.1
20260502023852 57 78 0.9 0.9 0.00 0.00 0.00 29 1018.1
20260502023349 59 146 0.0 0.0 0.00 0.00 0.00 24 1017.9
20260502022847 60 146 0.0 0.0 0.00 0.00 0.00 23 1017.8
20260502022343 60 149 0.0 0.0 0.00 0.00 0.00 23 1017.7
20260502021840 61 142 0.0 0.0 0.00 0.00 0.00 22 1017.9
20260502021337 62 143 0.0 0.9 0.00 0.00 0.00 22 1017.6
20260502020835 62 137 0.9 0.9 0.00 0.00 0.00 21 1017.6
20260502020332 63 100 0.9 0.9 0.00 0.00 0.00 20 1017.8
20260502015829 63 138 0.0 0.0 0.00 0.00 0.00 21 1017.7
20260502015326 64 120 0.9 0.9 0.00 0.00 0.00 20 1017.7
20260502014823 64 126 0.0 0.9 0.00 0.00 0.00 20 1017.9
20260502014320 65 84 0.9 0.9 0.00 0.00 0.00 19 1017.7
20260502013816 65 31 1.7 1.7 0.00 0.00 0.00 19 1017.5
20260502013313 65 75 1.7 1.7 0.00 0.00 0.00 19 1017.6
20260502012809 66 58 1.7 1.7 0.00 0.00 0.00 19 1017.6
20260502012307 66 74 1.7 1.7 0.00 0.00 0.00 18 1017.7
20260502011804 66 39 1.7 1.7 0.00 0.00 0.00 19 1017.7
20260502011300 66 112 1.7 2.6 0.00 0.00 0.00 19 1017.7
20260502010757 66 46 1.7 1.7 0.00 0.00 0.00 19 1017.8
20260502010253 67 111 0.9 1.7 0.00 0.00 0.00 19 1017.6
20260502005751 67 124 0.9 1.7 0.00 0.00 0.00 19 1017.7
20260502005248 67 32 4.3 5.2 0.00 0.00 0.00 19 1017.6
20260502004745 67 336 1.7 1.7 0.00 0.00 0.00 20 1017.6
20260502004241 67 49 1.7 1.7 0.00 0.00 0.00 19 1017.7
20260502003739 68 93 2.6 3.5 0.00 0.00 0.00 18 1017.7
20260502003237 68 17 0.9 0.9 0.00 0.00 0.00 19 1017.7
20260502002732 69 292 1.7 1.7 0.00 0.00 0.00 19 1017.8
20260502002230 69 110 1.7 2.6 0.00 0.00 0.00 18 1017.9
20260502001727 68 186 0.0 0.0 0.00 0.00 0.00 19 1017.8
20260502001225 68 176 1.7 1.7 0.00 0.00 0.00 18 1017.8
20260502000722 68 331 1.7 1.7 0.00 0.00 0.00 20 1017.9
20260502000220 68 105 2.6 2.6 0.00 0.00 0.00 19 1017.9
20260501235715 68 18 0.9 1.7 0.00 0.00 0.00 19 1018.1
20260501235212 68 349 3.5 5.2 0.00 0.00 0.00 18 1017.9
20260501234708 69 29 2.6 2.6 0.00 0.00 0.00 19 1018.1
20260501234205 68 29 1.7 1.7 0.00 0.00 0.00 19 1018.1
20260501233703 68 39 5.2 7.0 0.00 0.00 0.00 20 1017.7
20260501233200 68 26 5.2 5.2 0.00 0.00 0.00 18 1017.9
20260501232655 68 17 3.5 3.5 0.00 0.00 0.00 19 1017.9
20260501232153 68 5 5.2 6.1 0.00 0.00 0.00 19 1018.2
20260501231651 68 2 4.3 5.2 0.00 0.00 0.00 22 1017.9
20260501231149 68 12 7.0 7.8 0.00 0.00 0.00 19 1018.1
20260501230647 68 330 7.0 7.8 0.00 0.00 0.00 22 1017.9
20260501230145 68 55 1.7 2.6 0.00 0.00 0.00 20 1017.9
20260501225642 68 18 4.3 6.1 0.00 0.00 0.00 18 1018.1
20260501225138 69 60 5.2 6.1 0.00 0.00 0.00 18 1017.9
20260501224635 69 347 2.6 2.6 0.00 0.00 0.00 20 1017.9
20260501224132 69 244 3.5 3.5 0.00 0.00 0.00 19 1018.1
20260501223629 69 198 1.7 1.7 0.00 0.00 0.00 19 1018.2
20260501223125 70 175 1.7 1.7 0.00 0.00 0.00 19 1018.3
20260501222621 69 295 2.6 2.6 0.00 0.00 0.00 19 1018.3
20260501222119 68 300 2.6 3.5 0.00 0.00 0.00 20 1018.4
20260501221615 67 352 4.3 6.1 0.00 0.00 0.00 21 1018.4
20260501221113 67 138 0.9 1.7 0.00 0.00 0.00 21 1018.6
20260501220611 68 57 4.3 6.1 0.00 0.00 0.00 21 1018.6
20260501220107 68 44 3.5 3.5 0.00 0.00 0.00 21 1018.5
20260501215604 69 64 2.6 3.5 0.00 0.00 0.00 22 1018.6
20260501215059 69 215 1.7 2.6 0.00 0.00 0.00 20 1018.6
20260501214554 68 160 0.9 0.9 0.00 0.00 0.00 21 1018.9
20260501214050 69 220 2.6 2.6 0.00 0.00 0.00 21 1019.0
20260501213547 68 161 0.0 0.0 0.00 0.00 0.00 20 1018.7
20260501213043 68 219 5.2 6.1 0.00 0.00 0.00 21 1019.0
20260501212540 69 311 4.3 5.2 0.00 0.00 0.00 20 1019.0
20260501212037 67 218 4.3 5.2 0.00 0.00 0.00 22 1019.0
20260501211533 67 217 0.9 0.9 0.00 0.00 0.00 21 1019.1
20260501211032 68 175 0.9 1.7 0.00 0.00 0.00 23 1019.1
20260501210527 67 146 0.9 0.9 0.00 0.00 0.00 22 1019.2
20260501210024 68 357 1.7 1.7 0.00 0.00 0.00 21 1019.2
20260501205521 68 5 1.7 2.6 0.00 0.00 0.00 23 1019.2
20260501205019 67 71 0.9 1.7 0.00 0.00 0.00 22 1019.2
20260501204515 66 173 0.0 0.0 0.00 0.00 0.00 22 1019.4
20260501204011 66 87 3.5 5.2 0.00 0.00 0.00 22 1019.4
20260501203508 66 24 5.2 7.0 0.00 0.00 0.00 22 1019.4
20260501203006 66 12 3.5 5.2 0.00 0.00 0.00 24 1019.4
20260501202502 66 16 2.6 2.6 0.00 0.00 0.00 23 1019.7
20260501201958 66 352 7.0 7.8 0.00 0.00 0.00 28 1019.4
20260501201456 65 52 1.7 1.7 0.00 0.00 0.00 25 1019.7
20260501200953 65 101 1.7 1.7 0.00 0.00 0.00 24 1019.7
20260501200450 65 65 1.7 2.6 0.00 0.00 0.00 27 1019.7
20260501195947 64 40 1.7 2.6 0.00 0.00 0.00 24 1019.7
20260501195444 65 338 3.5 5.2 0.00 0.00 0.00 23 1019.8
20260501194939 65 8 4.3 5.2 0.00 0.00 0.00 24 1019.7
20260501194435 64 19 2.6 2.6 0.00 0.00 0.00 25 1019.8
20260501193931 63 56 5.2 6.1 0.00 0.00 0.00 24 1019.7
20260501193430 64 30 6.1 7.8 0.00 0.00 0.00 24 1019.9
20260501192927 65 117 2.6 5.2 0.00 0.00 0.00 24 1019.9
20260501192424 64 353 2.6 3.5 0.00 0.00 0.00 28 1019.9
20260501191922 64 330 5.2 6.1 0.00 0.00 0.00 25 1020.0
20260501191419 63 205 0.0 0.0 0.00 0.00 0.00 27 1020.1
20260501190915 63 323 2.6 2.6 0.00 0.00 0.00 25 1020.1
20260501190411 63 81 3.5 3.5 0.00 0.00 0.00 24 1020.0
20260501185911 62 149 2.6 3.5 0.00 0.00 0.00 25 1020.0
20260501185408 63 67 0.9 1.7 0.00 0.00 0.00 25 1020.1
20260501184904 62 359 3.5 3.5 0.00 0.00 0.00 26 1020.2
20260501184400 62 44 5.2 7.0 0.00 0.00 0.00 25 1020.2
20260501183855 63 63 3.5 3.5 0.00 0.00 0.00 24 1020.2
20260501183353 63 48 1.7 1.7 0.00 0.00 0.00 25 1020.3
20260501182849 63 11 3.5 3.5 0.00 0.00 0.00 24 1020.6
20260501182346 62 28 4.3 5.2 0.00 0.00 0.00 27 1020.5
20260501181843 62 13 4.3 5.2 0.00 0.00 0.00 26 1020.6
20260501181340 61 36 4.3 5.2 0.00 0.00 0.00 26 1020.6
20260501180837 61 109 1.7 1.7 0.00 0.00 0.00 26 1020.7
20260501180333 62 132 4.3 7.0 0.00 0.00 0.00 25 1020.6
20260501175831 62 224 0.0 0.9 0.00 0.00 0.00 25 1020.7
20260501175327 62 238 1.7 2.6 0.00 0.00 0.00 28 1020.8